QPF
0.00 0.01 0.01 0.01 0.01 0.01 0.02 0.01 0.01 0.01 0.00 0.00 0.00 0.00 0.00 0.00 0.00 0.00 0.00 0.00 0.00 0.00 0.01 0.01 0.01 0.01 0.01 0.01 0.01 0.01 0.01 0.01 0.01 0.01 0.01 0.01 0.01 0.01 0.01 0.01 0.00 0.00 0.00
0.00 0.00 0.00 0.00 0.00 0.00 0.01 0.01 0.00 0.00 0.00 0.00 0.00 0.00 0.00 0.00 0.00 0.00 0.00 0.00 0.00 0.00 0.01 0.01 0.01 0.02 0.01 0.02 0.02 0.02 0.02 0.02 0.02 0.02 0.02 0.02 0.02 0.02 0.02 0.02 0.02 0.01 0.01
0.00 0.00 0.00 0.00 0.00 0.00 0.00 0.00 0.00 0.00 0.00 0.00 0.00 0.00 0.00 0.00 0.00 0.00 0.00 0.00 0.00 0.00 0.01 0.02 0.02 0.02 0.02 0.02 0.02 0.02 0.02 0.02 0.02 0.03 0.03 0.03 0.03 0.03 0.03 0.03 0.04 0.03 0.02
0.00 0.00 0.00 0.00 0.00 0.00 0.00 0.00 0.00 0.00 0.00 0.00 0.00 0.00 0.00 0.00 0.00 0.00 0.00 0.00 0.00 0.00 0.00 0.01 0.02 0.02 0.02 0.02 0.02 0.02 0.03 0.03 0.03 0.03 0.03 0.04 0.04 0.04 0.04 0.05 0.05 0.05 0.04
0.00 0.00 0.00 0.01 0.01 0.01 0.00 0.00 0.00 0.00 0.00 0.00 0.00 0.00 0.00 0.00 0.00 0.00 0.00 0.00 0.00 0.00 0.00 0.01 0.02 0.02 0.02 0.02 0.02 0.02 0.02 0.03 0.03 0.03 0.03 0.03 0.04 0.05 0.05 0.06 0.06 0.06 0.06
0.01 0.00 0.01 0.01 0.01 0.01 0.00 0.00 0.00 0.00 0.00 0.00 0.00 0.00 0.00 0.00 0.00 0.00 0.00 0.00 0.00 0.00 0.00 0.00 0.00 0.01 0.01 0.01 0.01 0.01 0.02 0.02 0.02 0.02 0.02 0.03 0.04 0.04 0.05 0.05 0.06 0.06 0.06
0.03 0.02 0.02 0.01 0.01 0.01 0.00 0.00 0.00 0.00 0.00 0.00 0.00 0.00 0.00 0.00 0.00 0.00 0.00 0.00 0.00 0.00 0.00 0.00 0.00 0.00 0.00 0.01 0.01 0.01 0.01 0.01 0.01 0.02 0.03 0.03 0.03 0.03 0.03 0.03 0.03 0.04 0.06
0.05 0.04 0.03 0.02 0.01 0.01 0.00 0.00 0.00 0.00 0.00 0.00 0.00 0.00 0.00 0.00 0.00 0.00 0.00 0.00 0.00 0.00 0.00 0.00 0.00 0.00 0.00 0.00 0.00 0.00 0.00 0.00 0.00 0.00 0.01 0.02 0.02 0.02 0.02 0.02 0.01 0.02 0.03
0.07 0.05 0.04 0.03 0.02 0.01 0.00 0.00 0.00 0.00 0.00 0.00 0.00 0.00 0.00 0.00 0.00 0.00 0.00 0.00 0.00 0.00 0.00 0.00 0.00 0.00 0.00 0.00 0.00 0.00 0.00 0.00 0.00 0.00 0.00 0.00 0.01 0.01 0.01 0.01 0.02 0.02 0.02
0.08 0.06 0.04 0.03 0.02 0.01 0.01 0.00 0.00 0.00 0.00 0.00 0.00 0.00 0.00 0.00 0.00 0.00 0.00 0.00 0.00 0.00 0.00 0.00 0.00 0.00 0.00 0.00 0.00 0.00 0.00 0.00 0.00 0.00 0.00 0.00 0.00 0.01 0.01 0.01 0.01 0.02 0.02
0.09 0.06 0.04 0.03 0.02 0.01 0.00 0.00 0.00 0.00 0.00 0.00 0.00 0.00 0.00 0.00 0.00 0.00 0.00 0.00 0.00 0.00 0.00 0.00 0.00 0.00 0.00 0.00 0.00 0.00 0.00 0.00 0.00 0.00 0.00 0.00 0.00 0.01 0.01 0.02 0.02 0.02 0.02
0.07 0.05 0.04 0.03 0.02 0.01 0.00 0.00 0.00 0.00 0.00 0.00 0.00 0.00 0.00 0.00 0.00 0.00 0.00 0.00 0.00 0.00 0.00 0.00 0.00 0.00 0.00 0.00 0.00 0.00 0.00 0.00 0.01 0.01 0.01 0.01 0.01 0.02 0.02 0.02 0.02 0.03 0.03
0.04 0.03 0.02 0.01 0.01 0.00 0.00 0.00 0.00 0.00 0.00 0.00 0.00 0.00 0.00 0.00 0.00 0.00 0.00 0.00 0.00 0.00 0.00 0.00 0.00 0.00 0.00 0.00 0.00 0.00 0.00 0.00 0.01 0.01 0.01 0.01 0.01 0.01 0.01 0.02 0.02 0.02 0.02
0.01 0.01 0.01 0.01 0.00 0.00 0.00 0.00 0.00 0.00 0.00 0.00 0.00 0.00 0.00 0.00 0.00 0.00 0.00 0.00 0.00 0.00 0.00 0.00 0.00 0.00 0.00 0.00 0.00 0.00 0.00 0.00 0.01 0.01 0.01 0.01 0.01 0.01 0.01 0.01 0.02 0.01 0.01
0.01 0.01 0.00 0.00 0.00 0.00 0.00 0.00 0.00 0.00 0.00 0.00 0.00 0.00 0.00 0.00 0.00 0.00 0.00 0.01 0.01 0.01 0.00 0.00 0.00 0.00 0.00 0.00 0.00 0.00 0.00 0.00 0.01 0.01 0.01 0.02 0.01 0.01 0.01 0.02 0.02 0.02 0.01
0.01 0.00 0.00 0.00 0.00 0.00 0.00 0.00 0.00 0.00 0.00 0.00 0.00 0.00 0.00 0.00 0.00 0.00 0.01 0.01 0.01 0.01 0.01 0.00 0.00 0.00 0.00 0.00 0.00 0.00 0.00 0.00 0.00 0.00 0.01 0.01 0.01 0.01 0.01 0.01 0.01 0.01 0.01
0.00 0.00 0.00 0.00 0.00 0.00 0.00 0.00 0.00 0.00 0.00 0.00 0.00 0.00 0.00 0.00 0.00 0.00 0.00 0.00 0.00 0.01 0.01 0.00 0.00 0.00 0.00 0.00 0.00 0.00 0.00 0.00 0.00 0.00 0.01 0.02 0.02 0.02 0.02 0.02 0.02 0.02 0.02
0.00 0.00 0.00 0.00 0.00 0.00 0.00 0.00 0.00 0.00 0.00 0.00 0.00 0.00 0.00 0.00 0.00 0.00 0.00 0.00 0.00 0.00 0.00 0.00 0.00 0.00 0.00 0.00 0.00 0.00 0.00 0.00 0.00 0.01 0.02 0.02 0.02 0.02 0.02 0.02 0.02 0.01 0.01
0.00 0.00 0.00 0.01 0.01 0.01 0.01 0.00 0.00 0.00 0.00 0.00 0.00 0.00 0.00 0.00 0.00 0.00 0.00 0.00 0.00 0.00 0.00 0.00 0.00 0.00 0.00 0.00 0.00 0.00 0.00 0.00 0.01 0.01 0.02 0.02 0.02 0.02 0.02 0.01 0.01 0.01 0.00
0.01 0.01 0.01 0.01 0.01 0.00 0.00 0.00 0.00 0.00 0.00 0.00 0.00 0.00 0.00 0.00 0.00 0.00 0.00 0.00 0.00 0.00 0.01 0.01 0.01 0.01 0.01 0.00 0.00 0.01 0.01 0.01 0.01 0.01 0.01 0.01 0.01 0.02 0.01 0.01 0.01 0.01 0.00
0.03 0.02 0.02 0.02 0.01 0.00 0.00 0.00 0.00 0.00 0.00 0.00 0.00 0.00 0.00 0.00 0.01 0.01 0.02 0.01 0.02 0.02 0.02 0.02 0.02 0.02 0.01 0.01 0.01 0.01 0.01 0.01 0.00 0.00 0.00 0.00 0.01 0.01 0.01 0.01 0.02 0.02 0.01
0.03 0.02 0.01 0.00 0.00 0.00 0.00 0.00 0.00 0.00 0.00 0.00 0.00 0.00 0.00 0.00 0.00 0.01 0.02 0.03 0.04 0.04 0.04 0.04 0.04 0.04 0.02 0.01 0.01 0.02 0.03 0.03 0.02 0.01 0.01 0.01 0.00 0.00 0.00 0.01 0.01 0.02 0.01
0.01 0.00 0.00 0.00 0.00 0.00 0.00 0.00 0.00 0.00 0.00 0.00 0.00 0.00 0.00 0.00 0.00 0.01 0.01 0.01 0.02 0.02 0.04 0.05 0.05 0.04 0.03 0.02 0.04 0.06 0.06 0.05 0.04 0.02 0.03 0.03 0.01 0.01 0.01 0.01 0.02 0.02 0.02
0.00 0.00 0.00 0.00 0.00 0.00 0.00 0.00 0.00 0.00 0.00 0.00 0.00 0.00 0.00 0.00 0.00 0.01 0.01 0.01 0.01 0.01 0.02 0.02 0.03 0.03 0.03 0.04 0.06 0.07 0.07 0.06 0.04 0.03 0.05 0.05 0.02 0.02 0.02 0.03 0.03 0.03 0.03
0.00 0.00 0.00 0.00 0.00 0.00 0.00 0.00 0.00 0.00 0.00 0.00 0.00 0.00 0.00 0.00 0.01 0.01 0.01 0.02 0.01 0.01 0.01 0.02 0.03 0.04 0.05 0.07 0.08 0.07 0.08 0.09 0.07 0.05 0.05 0.07 0.05 0.03 0.03 0.03 0.03 0.04 0.04
0.00 0.00 0.00 0.00 0.00 0.00 0.00 0.00 0.00 0.00 0.00 0.00 0.00 0.00 0.00 0.01 0.01 0.01 0.01 0.02 0.02 0.02 0.02 0.02 0.03 0.04 0.04 0.06 0.08 0.07 0.08 0.09 0.09 0.09 0.08 0.07 0.06 0.05 0.05 0.03 0.03 0.03 0.03
MSLP
1016.53 1016.63 1016.66 1016.65 1016.65 1016.67 1016.74 1016.86 1017.00 1017.16 1017.29 1017.39 1017.45 1017.47 1017.47 1017.47 1017.47 1017.50 1017.55 1017.62 1017.68 1017.74 1017.78 1017.81 1017.84 1017.88 1017.95 1018.05 1018.18 1018.33 1018.50 1018.67 1018.82 1018.94 1019.04 1019.11 1019.15 1019.18 1019.19 1019.20 1019.21 1019.21 1019.21
1016.31 1016.44 1016.51 1016.55 1016.59 1016.65 1016.75 1016.87 1017.02 1017.17 1017.31 1017.41 1017.48 1017.52 1017.54 1017.54 1017.55 1017.56 1017.58 1017.61 1017.64 1017.67 1017.69 1017.70 1017.73 1017.77 1017.83 1017.93 1018.05 1018.19 1018.35 1018.50 1018.65 1018.78 1018.90 1019.00 1019.08 1019.14 1019.19 1019.20 1019.20 1019.17 1019.12
1016.14 1016.32 1016.45 1016.56 1016.67 1016.78 1016.91 1017.06 1017.22 1017.36 1017.49 1017.59 1017.65 1017.69 1017.70 1017.70 1017.69 1017.68 1017.67 1017.65 1017.63 1017.61 1017.59 1017.58 1017.59 1017.63 1017.69 1017.77 1017.88 1018.00 1018.13 1018.26 1018.39 1018.52 1018.65 1018.77 1018.89 1018.99 1019.07 1019.11 1019.12 1019.09 1019.03
1016.07 1016.31 1016.51 1016.70 1016.89 1017.07 1017.25 1017.42 1017.58 1017.71 1017.82 1017.90 1017.95 1017.98 1017.98 1017.97 1017.94 1017.89 1017.83 1017.76 1017.68 1017.61 1017.55 1017.51 1017.50 1017.51 1017.56 1017.63 1017.72 1017.81 1017.90 1017.99 1018.09 1018.19 1018.31 1018.43 1018.57 1018.71 1018.82 1018.91 1018.95 1018.94 1018.88
1016.14 1016.43 1016.71 1016.98 1017.24 1017.49 1017.72 1017.91 1018.06 1018.18 1018.27 1018.32 1018.35 1018.37 1018.36 1018.34 1018.29 1018.21 1018.11 1017.99 1017.86 1017.74 1017.63 1017.55 1017.51 1017.51 1017.54 1017.58 1017.64 1017.68 1017.72 1017.76 1017.79 1017.84 1017.92 1018.03 1018.16 1018.32 1018.47 1018.59 1018.67 1018.70 1018.67
1016.34 1016.67 1017.01 1017.35 1017.69 1017.99 1018.25 1018.45 1018.60 1018.70 1018.76 1018.79 1018.81 1018.82 1018.82 1018.79 1018.74 1018.65 1018.53 1018.37 1018.20 1018.03 1017.87 1017.76 1017.69 1017.66 1017.66 1017.67 1017.68 1017.68 1017.65 1017.61 1017.56 1017.54 1017.55 1017.61 1017.72 1017.86 1018.03 1018.19 1018.31 1018.38 1018.39
1016.63 1017.00 1017.38 1017.78 1018.15 1018.49 1018.77 1018.98 1019.11 1019.19 1019.24 1019.26 1019.28 1019.30 1019.32 1019.31 1019.28 1019.19 1019.06 1018.89 1018.68 1018.48 1018.29 1018.14 1018.03 1017.97 1017.94 1017.91 1017.87 1017.80 1017.70 1017.57 1017.43 1017.31 1017.23 1017.22 1017.28 1017.40 1017.55 1017.73 1017.88 1017.99 1018.04
1016.97 1017.35 1017.76 1018.18 1018.58 1018.93 1019.22 1019.42 1019.54 1019.61 1019.65 1019.67 1019.71 1019.76 1019.80 1019.84 1019.84 1019.78 1019.66 1019.48 1019.26 1019.03 1018.81 1018.62 1018.48 1018.39 1018.31 1018.24 1018.15 1018.01 1017.83 1017.61 1017.38 1017.16 1016.99 1016.89 1016.88 1016.95 1017.08 1017.25 1017.41 1017.55 1017.62
1017.30 1017.68 1018.10 1018.52 1018.92 1019.27 1019.55 1019.73 1019.85 1019.91 1019.95 1019.99 1020.05 1020.14 1020.23 1020.31 1020.36 1020.33 1020.23 1020.07 1019.84 1019.59 1019.34 1019.12 1018.95 1018.81 1018.70 1018.58 1018.43 1018.23 1017.98 1017.68 1017.36 1017.05 1016.79 1016.60 1016.52 1016.53 1016.62 1016.76 1016.92 1017.06 1017.15
1017.57 1017.95 1018.35 1018.76 1019.15 1019.49 1019.75 1019.92 1020.02 1020.08 1020.12 1020.19 1020.28 1020.41 1020.55 1020.68 1020.76 1020.77 1020.70 1020.54 1020.31 1020.04 1019.76 1019.51 1019.30 1019.12 1018.97 1018.80 1018.61 1018.36 1018.05 1017.69 1017.30 1016.92 1016.59 1016.33 1016.18 1016.13 1016.17 1016.28 1016.41 1016.54 1016.63
1017.77 1018.13 1018.52 1018.92 1019.29 1019.60 1019.84 1020.00 1020.09 1020.15 1020.20 1020.28 1020.40 1020.55 1020.73 1020.89 1021.00 1021.03 1020.97 1020.81 1020.57 1020.28 1019.99 1019.70 1019.45 1019.24 1019.04 1018.83 1018.60 1018.31 1017.97 1017.57 1017.14 1016.72 1016.34 1016.04 1015.83 1015.73 1015.73 1015.79 1015.89 1015.99 1016.07
1017.89 1018.25 1018.63 1019.01 1019.36 1019.65 1019.87 1020.01 1020.10 1020.15 1020.20 1020.29 1020.41 1020.58 1020.76 1020.93 1021.04 1021.07 1021.00 1020.83 1020.58 1020.28 1019.96 1019.65 1019.36 1019.11 1018.88 1018.64 1018.38 1018.07 1017.70 1017.29 1016.85 1016.42 1016.02 1015.69 1015.46 1015.31 1015.26 1015.28 1015.34 1015.41 1015.46
1017.97 1018.33 1018.71 1019.07 1019.41 1019.68 1019.88 1020.01 1020.08 1020.12 1020.17 1020.24 1020.36 1020.50 1020.67 1020.81 1020.90 1020.91 1020.82 1020.63 1020.36 1020.04 1019.70 1019.36 1019.05 1018.77 1018.51 1018.25 1017.96 1017.64 1017.27 1016.86 1016.43 1016.00 1015.61 1015.28 1015.03 1014.86 1014.77 1014.74 1014.75 1014.79 1014.82
1018.06 1018.42 1018.79 1019.16 1019.48 1019.74 1019.93 1020.04 1020.10 1020.12 1020.15 1020.19 1020.27 1020.37 1020.48 1020.57 1020.62 1020.58 1020.46 1020.24 1019.96 1019.62 1019.27 1018.92 1018.60 1018.30 1018.02 1017.73 1017.43 1017.10 1016.73 1016.33 1015.91 1015.51 1015.13 1014.80 1014.54 1014.35 1014.23 1014.16 1014.13 1014.13 1014.14
1018.19 1018.56 1018.93 1019.29 1019.60 1019.85 1020.03 1020.13 1020.17 1020.17 1020.16 1020.16 1020.18 1020.22 1020.26 1020.28 1020.26 1020.16 1020.00 1019.76 1019.46 1019.12 1018.77 1018.42 1018.09 1017.78 1017.48 1017.18 1016.86 1016.51 1016.14 1015.75 1015.35 1014.95 1014.59 1014.26 1013.99 1013.78 1013.63 1013.52 1013.45 1013.42 1013.42
1018.41 1018.77 1019.14 1019.49 1019.80 1020.04 1020.20 1020.28 1020.30 1020.27 1020.22 1020.17 1020.12 1020.08 1020.04 1019.98 1019.88 1019.73 1019.51 1019.25 1018.94 1018.60 1018.26 1017.91 1017.59 1017.27 1016.95 1016.63 1016.30 1015.94 1015.55 1015.15 1014.75 1014.36 1013.99 1013.67 1013.38 1013.15 1012.96 1012.81 1012.71 1012.65 1012.64
1018.72 1019.07 1019.43 1019.77 1020.06 1020.29 1020.44 1020.50 1020.50 1020.44 1020.34 1020.23 1020.11 1019.99 1019.85 1019.71 1019.53 1019.31 1019.06 1018.77 1018.45 1018.12 1017.78 1017.45 1017.12 1016.80 1016.47 1016.13 1015.76 1015.37 1014.96 1014.54 1014.12 1013.71 1013.34 1012.99 1012.69 1012.43 1012.21 1012.03 1011.90 1011.82 1011.81
1019.11 1019.44 1019.78 1020.10 1020.38 1020.59 1020.72 1020.76 1020.73 1020.63 1020.49 1020.31 1020.12 1019.92 1019.70 1019.47 1019.22 1018.94 1018.64 1018.32 1017.99 1017.66 1017.32 1016.99 1016.67 1016.33 1015.98 1015.61 1015.21 1014.78 1014.34 1013.89 1013.44 1013.01 1012.61 1012.24 1011.91 1011.62 1011.37 1011.16 1011.01 1010.92 1010.92
1019.55 1019.86 1020.17 1020.46 1020.71 1020.90 1021.00 1021.02 1020.96 1020.82 1020.63 1020.40 1020.14 1019.86 1019.56 1019.25 1018.92 1018.58 1018.23 1017.88 1017.53 1017.18 1016.84 1016.50 1016.16 1015.81 1015.43 1015.03 1014.59 1014.12 1013.64 1013.15 1012.67 1012.22 1011.79 1011.40 1011.04 1010.73 1010.46 1010.24 1010.08 1009.99 1009.99
1020.03 1020.30 1020.57 1020.83 1021.05 1021.20 1021.27 1021.25 1021.15 1020.97 1020.73 1020.44 1020.12 1019.77 1019.40 1019.01 1018.61 1018.21 1017.81 1017.41 1017.02 1016.64 1016.28 1015.91 1015.55 1015.17 1014.76 1014.32 1013.85 1013.35 1012.84 1012.32 1011.82 1011.34 1010.89 1010.48 1010.12 1009.79 1009.52 1009.29 1009.14 1009.06 1009.08
1020.50 1020.72 1020.96 1021.17 1021.34 1021.45 1021.47 1021.41 1021.26 1021.04 1020.75 1020.41 1020.03 1019.61 1019.18 1018.72 1018.26 1017.79 1017.33 1016.88 1016.44 1016.02 1015.61 1015.21 1014.81 1014.39 1013.95 1013.49 1012.99 1012.48 1011.95 1011.42 1010.91 1010.42 1009.97 1009.55 1009.19 1008.87 1008.59 1008.39 1008.25 1008.19 1008.23
1020.94 1021.12 1021.31 1021.47 1021.59 1021.63 1021.60 1021.48 1021.28 1021.01 1020.67 1020.27 1019.84 1019.37 1018.88 1018.37 1017.85 1017.32 1016.80 1016.29 1015.79 1015.31 1014.86 1014.41 1013.97 1013.52 1013.06 1012.58 1012.08 1011.56 1011.03 1010.51 1010.00 1009.53 1009.08 1008.68 1008.33 1008.02 1007.76 1007.57 1007.46 1007.43 1007.50
1021.34 1021.48 1021.62 1021.73 1021.78 1021.75 1021.65 1021.47 1021.20 1020.87 1020.48 1020.04 1019.56 1019.05 1018.52 1017.96 1017.39 1016.82 1016.24 1015.68 1015.13 1014.60 1014.09 1013.60 1013.12 1012.65 1012.18 1011.69 1011.20 1010.70 1010.19 1009.70 1009.22 1008.76 1008.34 1007.95 1007.62 1007.32 1007.09 1006.91 1006.82 1006.81 1006.90
1021.71 1021.81 1021.89 1021.93 1021.91 1021.81 1021.63 1021.37 1021.04 1020.65 1020.20 1019.72 1019.21 1018.67 1018.11 1017.53 1016.94 1016.33 1015.72 1015.11 1014.52 1013.95 1013.40 1012.88 1012.38 1011.89 1011.42 1010.95 1010.48 1010.01 1009.54 1009.08 1008.64 1008.21 1007.81 1007.44 1007.11 1006.83 1006.59 1006.43 1006.34 1006.35 1006.44
1022.05 1022.11 1022.14 1022.11 1022.01 1021.83 1021.57 1021.23 1020.83 1020.38 1019.89 1019.37 1018.84 1018.29 1017.72 1017.13 1016.53 1015.91 1015.28 1014.66 1014.05 1013.45 1012.88 1012.34 1011.83 1011.35 1010.89 1010.45 1010.01 1009.58 1009.16 1008.74 1008.33 1007.92 1007.53 1007.17 1006.83 1006.53 1006.28 1006.10 1006.00 1005.99 1006.09
1022.38 1022.39 1022.36 1022.26 1022.09 1021.83 1021.49 1021.08 1020.61 1020.11 1019.58 1019.04 1018.49 1017.94 1017.37 1016.79 1016.20 1015.59 1014.98 1014.35 1013.74 1013.14 1012.57 1012.03 1011.53 1011.07 1010.63 1010.22 1009.82 1009.43 1009.05 1008.66 1008.27 1007.88 1007.49 1007.10 1006.74 1006.40 1006.11 1005.88 1005.74 1005.70 1005.76
Thickness
5733 5730 5727 5724 5722 5720 5718 5716 5714 5712 5710 5708 5706 5704 5702 5700 5698 5696 5694 5691 5689 5687 5685 5684 5682 5680 5678 5676 5674 5671 5669 5667 5665 5664 5662 5661 5660 5660 5660 5659 5659 5659 5659
5732 5728 5724 5720 5719 5717 5714 5712 5710 5708 5706 5703 5701 5699 5696 5693 5691 5688 5686 5684 5682 5680 5678 5677 5675 5672 5670 5668 5665 5662 5660 5657 5655 5653 5652 5651 5650 5649 5649 5650 5650 5650 5650
5729 5724 5719 5715 5713 5712 5709 5705 5703 5701 5699 5696 5694 5692 5689 5686 5683 5680 5677 5675 5673 5671 5670 5668 5666 5663 5661 5658 5655 5652 5649 5647 5644 5642 5640 5639 5638 5638 5637 5638 5638 5639 5640
5722 5717 5712 5708 5706 5703 5701 5697 5694 5690 5687 5685 5683 5682 5680 5678 5675 5671 5668 5666 5663 5662 5660 5658 5656 5652 5649 5647 5644 5641 5638 5636 5633 5630 5628 5627 5626 5625 5625 5625 5626 5627 5628
5714 5709 5704 5699 5697 5693 5690 5688 5683 5680 5676 5674 5673 5672 5669 5667 5664 5662 5659 5656 5653 5650 5648 5646 5643 5640 5637 5633 5631 5628 5626 5623 5621 5618 5616 5614 5613 5612 5612 5612 5613 5614 5615
5705 5700 5694 5690 5686 5682 5677 5675 5671 5668 5665 5663 5662 5660 5658 5656 5653 5649 5646 5643 5640 5637 5634 5631 5628 5625 5622 5618 5616 5614 5611 5610 5608 5606 5603 5601 5600 5598 5598 5598 5599 5600 5602
5695 5689 5683 5678 5674 5670 5665 5662 5659 5655 5652 5650 5647 5645 5645 5644 5640 5637 5633 5629 5625 5621 5618 5614 5611 5608 5605 5602 5600 5598 5597 5595 5594 5592 5590 5588 5587 5585 5584 5584 5585 5586 5588
5686 5679 5673 5667 5662 5658 5653 5650 5646 5641 5638 5635 5631 5628 5624 5625 5624 5623 5619 5615 5609 5605 5601 5597 5593 5590 5588 5585 5583 5582 5581 5580 5580 5579 5577 5575 5573 5572 5571 5571 5572 5572 5574
5675 5669 5662 5656 5650 5646 5641 5637 5633 5629 5623 5620 5618 5613 5608 5604 5602 5606 5602 5597 5592 5588 5584 5580 5576 5572 5569 5566 5565 5564 5563 5563 5564 5564 5563 5562 5560 5559 5558 5558 5558 5559 5560
5664 5658 5651 5645 5639 5634 5629 5625 5620 5616 5612 5606 5602 5599 5594 5589 5585 5583 5583 5579 5575 5571 5566 5563 5559 5555 5552 5549 5547 5546 5545 5546 5546 5546 5547 5546 5546 5546 5545 5545 5546 5546 5547
5652 5647 5640 5634 5628 5622 5617 5612 5608 5604 5599 5594 5589 5584 5579 5574 5568 5563 5561 5560 5558 5555 5551 5547 5543 5539 5535 5532 5530 5528 5528 5527 5527 5528 5529 5530 5532 5533 5534 5534 5534 5535 5536
5641 5636 5629 5623 5616 5611 5606 5601 5596 5592 5587 5582 5577 5571 5565 5559 5553 5547 5543 5541 5540 5539 5536 5532 5527 5522 5518 5515 5512 5510 5509 5508 5508 5509 5510 5512 5515 5518 5520 5522 5523 5524 5526
5630 5625 5618 5611 5605 5600 5595 5590 5585 5580 5575 5570 5564 5559 5553 5547 5541 5535 5530 5527 5525 5523 5520 5516 5510 5505 5500 5496 5493 5490 5489 5488 5489 5490 5491 5493 5497 5500 5504 5507 5510 5512 5515
5620 5613 5607 5600 5594 5589 5584 5579 5573 5568 5563 5557 5553 5547 5540 5535 5529 5523 5517 5512 5511 5509 5504 5500 5494 5487 5481 5477 5473 5470 5470 5468 5469 5470 5472 5474 5478 5483 5487 5491 5496 5499 5503
5608 5601 5594 5588 5582 5577 5572 5566 5560 5555 5550 5544 5538 5533 5527 5522 5516 5510 5504 5497 5491 5494 5495 5485 5476 5470 5463 5458 5454 5450 5449 5448 5449 5451 5454 5457 5461 5466 5471 5476 5481 5485 5490
5594 5587 5581 5575 5569 5564 5558 5552 5545 5540 5534 5528 5523 5517 5512 5507 5501 5495 5489 5482 5474 5470 5474 5469 5458 5451 5445 5440 5436 5433 5431 5430 5431 5434 5437 5441 5446 5451 5456 5462 5467 5473 5478
5579 5573 5567 5561 5555 5548 5541 5534 5528 5522 5517 5511 5506 5501 5496 5491 5485 5479 5472 5465 5458 5450 5451 5453 5440 5433 5427 5423 5421 5417 5416 5416 5418 5421 5425 5429 5433 5438 5443 5449 5455 5460 5466
5564 5558 5552 5545 5537 5529 5522 5516 5510 5504 5499 5494 5489 5485 5480 5475 5469 5462 5456 5449 5442 5434 5429 5431 5426 5418 5413 5410 5408 5406 5406 5407 5409 5412 5416 5420 5425 5429 5434 5439 5444 5449 5455
5547 5541 5534 5526 5518 5511 5504 5499 5493 5488 5482 5477 5473 5469 5464 5459 5454 5448 5442 5435 5428 5423 5416 5413 5413 5408 5405 5402 5400 5400 5400 5400 5402 5406 5410 5414 5419 5423 5427 5432 5437 5441 5446
5529 5523 5516 5508 5500 5494 5488 5483 5478 5472 5467 5463 5459 5454 5450 5445 5441 5436 5431 5424 5418 5413 5408 5404 5404 5402 5399 5398 5395 5396 5397 5398 5400 5403 5406 5410 5413 5417 5421 5426 5430 5434 5438
5511 5505 5498 5491 5485 5479 5474 5468 5462 5458 5453 5449 5445 5442 5438 5435 5432 5427 5423 5417 5412 5408 5405 5402 5401 5399 5398 5396 5395 5396 5397 5398 5401 5401 5404 5407 5410 5413 5417 5420 5424 5428 5432
5493 5487 5481 5475 5470 5465 5459 5454 5449 5443 5439 5435 5433 5430 5427 5425 5422 5419 5415 5412 5409 5406 5404 5402 5401 5400 5400 5398 5398 5397 5397 5399 5402 5404 5403 5407 5409 5411 5414 5417 5421 5424 5428
5476 5470 5465 5460 5454 5450 5445 5440 5435 5430 5426 5423 5421 5419 5418 5416 5414 5411 5409 5408 5407 5406 5405 5403 5404 5403 5402 5402 5400 5400 5400 5401 5404 5405 5404 5409 5410 5412 5414 5417 5420 5422 5425
5460 5455 5450 5445 5440 5436 5431 5426 5422 5418 5414 5413 5411 5410 5409 5409 5408 5406 5406 5406 5407 5408 5407 5407 5406 5406 5405 5404 5403 5403 5403 5404 5406 5407 5407 5410 5412 5413 5416 5417 5419 5421 5423
5445 5441 5436 5431 5426 5422 5418 5414 5411 5406 5404 5403 5403 5404 5404 5404 5404 5403 5404 5406 5408 5410 5411 5410 5409 5409 5408 5406 5405 5404 5405 5405 5407 5409 5409 5410 5412 5413 5415 5417 5419 5420 5421
5431 5427 5422 5417 5413 5409 5406 5403 5400 5397 5395 5396 5398 5399 5401 5401 5402 5403 5404 5406 5409 5410 5411 5412 5412 5411 5410 5408 5406 5404 5402 5402 5404 5407 5406 5406 5409 5410 5413 5416 5418 5419 5421